Location: Columbia
(38.9520°N, 92.3340°W)
Time: 06:50:23
(UTC-05:00)

Iridium 22 - Visible Passes

Search period start: 30 September 2014 00:00
Search period end: 10 October 2014 00:00
Orbit: 776 x 779 km, 86.4° (Epoch: 29 September)

Date Brightness Start Highest point End Pass type
(mag) Time Alt. Az. Time Alt. Az. Time Alt. Az.
30 Sep 7.3 20:06:00 14° ENE 20:06:00 14° ENE 20:07:29 10° NE visible
30 Sep 6.8 21:46:26 36° NNW 21:46:26 36° NNW 21:49:41 10° N visible
01 Oct 6.0 21:12:31 48° N 21:12:31 48° N 21:16:15 10° N visible
01 Oct 8.5 22:52:56 10° WNW 22:52:56 10° WNW 22:53:20 10° WNW visible
02 Oct 6.0 20:38:28 39° ENE 20:38:28 39° ENE 20:42:30 10° NNE visible
02 Oct 7.8 22:18:53 20° WNW 22:18:53 20° WNW 22:22:18 10° NNW visible
03 Oct 6.6 20:04:16 23° E 20:04:18 23° E 20:08:20 10° NNE visible
03 Oct 6.8 21:44:40 36° W 21:44:45 36° W 21:49:33 10° NNW visible
04 Oct 7.2 19:29:46 11° E 19:31:06 12° ENE 19:33:10 10° NE visible
04 Oct 5.7 21:10:08 55° SW 21:11:07 69° W 21:16:20 10° N visible
05 Oct 5.4 20:34:50 27° SSE 20:37:37 63° E 20:42:46 10° N visible
05 Oct 8.3 22:16:12 10° WSW 22:18:48 14° WNW 22:21:24 10° NW visible
06 Oct 6.1 19:59:37 10° SSE 20:04:14 33° E 20:08:52 10° NNE visible
06 Oct 7.5 21:40:42 10° SW 21:44:58 25° W 21:49:15 10° NNW visible
07 Oct 6.8 19:27:31 10° ESE 19:30:58 18° E 19:34:27 10° NE visible
07 Oct 6.4 21:06:16 10° SSW 21:11:15 47° W 21:16:17 10° N visible
08 Oct 5.4 20:32:29 10° S 20:37:41 88° W 20:42:55 10° N visible
09 Oct 5.7 19:59:14 10° SSE 20:04:13 49° E 20:09:14 10° NNE visible
09 Oct 8.1 21:41:47 10° WSW 21:45:13 18° WNW 21:48:40 10° NW visible
